Regional Weather Roundup
Issued by NWS

Home | Current Version | Previous Version | Text Only | Print | Product List | Glossary On
Versions: 1 2 3 4 5 6 7 8 9 10 11 12 13 14 15 16 17 18 19 20 21 22 23 24 25 26 27 28 29 30 31 32 33 34 35 36 37 38 39 40 41 42 43 44 45 46 47 48 49 50
000
ASUS43 KLMK 161910
RWRKY
KENTUCKY REGIONAL WEATHER ROUNDUP
NATIONAL WEATHER SERVICE LOUISVILLE KY
300 PM EDT WED AUG 16 2017

NOTE "FAIR" INDICATES FEW OR NO CLOUDS BELOW 12,000 FEET
WITH NO SIGNIFICANT WEATHER AND/OR OBSTRUCTIONS TO VISIBILITY.

KYZ001>023-026-027-061>063-070>075-162000-
WESTERN AND SOUTH CENTRAL KENTUCKY

CITY           SKY/WX    TMP DP  RH WIND       PRES   REMARKS
PADUCAH        CLOUDY    89  75  63 S6        29.95F HX  99
HENDERSON      CLOUDY    88  76  67 VRB3      29.98F HX  99
OWENSBORO      CLOUDY    86  76  71 S3        29.99F THUNDER HX  96
HOPKINSVILLE   MOSUNNY   89  74  61 S12       29.98F HX  98
BOWLING GREEN  TSTM      81  76  84 S7        30.02S
GLASGOW        CLOUDY    76  75  98 E3        30.03S
$$

KYZ024-025-028>034-038-045-046-053-162000-
NORTH CENTRAL KENTUCKY

CITY           SKY/WX    TMP DP  RH WIND       PRES   REMARKS
LOUISVILLE/SDF PTSUNNY   90  71  53 S3        29.99F HX  96
LOUISVILLE/LOU MOSUNNY   90  71  53 SW7       30.00F HX  96
FORT KNOX      PTSUNNY   87  71  58 SW8       30.00F HX  92
$$

KYZ035>037-039>044-047>052-055>060-089>105-162000-
NORTHEAST KENTUCKY

CITY           SKY/WX    TMP DP  RH WIND       PRES   REMARKS
LEXINGTON      MOSUNNY   85  71  63 SW7       30.04F HX  90
COVINGTON      MOSUNNY   88  71  57 S3        30.01F HX  94
FRANKFORT      PTSUNNY   87  72  60 VRB6      30.01F HX  93
$$

KYZ054-064>069-076>088-106>120-162000-
SOUTHEAST KENTUCKY

CITY           SKY/WX    TMP DP  RH WIND       PRES   REMARKS
JACKSON        PTSUNNY   84  71  65 VRB3      30.07F
LONDON         CLOUDY    77  71  82 S5        30.08R
SOMERSET       MOSUNNY   84  68  58 W10G16    30.05F
MIDDLESBORO    PTSUNNY   88  72  58 S7        30.06F HX  94
MONTICELLO     MOCLDY    87  75  67 W17       30.07F HX  96
$$





USA.gov is the U.S. government's official web portal to all federal, state and local government web resources and services.